Wakefield, VA

12:19 AM EDT on October 18, 2019 (GMT -0400)
Wakefield Municipal

Weather History for KAKQ - September, 2019

Change the Weather History Date:

Thursday, September 19, 2019

  Actual Average (KJGG) Record (KJGG)
Temperature  
Mean Temperature 62 °F -  
Max Temperature 73 °F 81 °F 93 °F (1965)
Min Temperature 51 °F 60 °F 45 °F (1984)
Degree Days  
Heating Degree Days 4    
Growing Degree Days 12 (Base 50)    
Moisture  
Dew Point 51 °F    
Average Humidity 74    
Maximum Humidity 93    
Minimum Humidity 47    
Precipitation  
Precipitation 0.00 in - - ()
Sea Level Pressure  
Sea Level Pressure 30.28 in    
Wind  
Wind Speed 2 mph (NE)    
Max Wind Speed 8 mph    
Max Gust Speed -    
Visibility 10 miles    
Events      
Averages and records for this station are not official NWS values.
T = Trace of Precipitation, MM = Missing Value Source: NWS Daily Summary

Daily Weather History Graph

Daily Weather History Graph

Search for Another Location

Airport or City:

Astronomy

Sep. 19, 2019 Rise Set
Actual Time 6:53 AM EDT 7:09 PM EDT
Civil Twilight 6:27 AM EDT 7:35 PM EDT
Nautical Twilight 5:56 AM EDT 8:06 PM EDT
Astronomical Twilight 5:25 AM EDT 8:36 PM EDT
Moon 10:24 PM EDT (9/19) 11:47 AM EDT (9/19)
Length of Visible Light 13h 08m
Length of Day
12h 16m
Waning Gibbous, 74% of the Moon is Illuminated
Sep 19
Waning Gibbous
Sep 21
Last Quarter
Sep 28
New
Oct 5
First Quarter
Oct 13
Full

Hourly Weather History & Observations

Time (EDT) Temp. Dew Point Humidity Pressure Visibility Wind Dir Wind Speed Gust Speed Precip Events Conditions
12:54 AM 55.9 °F 53.1 °F 90% 30.23 in 10.0 mi Calm Calm - N/A   Clear
1:54 AM 55.0 °F 53.1 °F 93% 30.22 in 10.0 mi Calm Calm - N/A   Clear
2:54 AM 55.9 °F 53.1 °F 90% 30.22 in 10.0 mi Calm Calm - N/A   Clear
3:54 AM 53.1 °F 51.1 °F 93% 30.23 in 10.0 mi Calm Calm - N/A   Clear
4:54 AM 54.0 °F 51.1 °F 90% 30.25 in 10.0 mi Calm Calm - N/A   Clear
5:54 AM 53.1 °F 51.1 °F 93% 30.26 in 10.0 mi Calm Calm - N/A   Clear
6:54 AM 51.1 °F 48.9 °F 92% 30.28 in 9.0 mi Calm Calm - N/A   Clear
7:54 AM 57.0 °F 53.1 °F 87% 30.29 in 10.0 mi Calm Calm - N/A   Clear
8:54 AM 63.0 °F 54.0 °F 72% 30.30 in 10.0 mi Variable 3.5 mph - N/A   Clear
9:54 AM 68.0 °F 53.1 °F 59% 30.30 in 10.0 mi Variable 6.9 mph - N/A   Clear
10:54 AM 66.9 °F 52.0 °F 59% 30.31 in 10.0 mi NE 6.9 mph - N/A   Mostly Cloudy
11:54 AM 69.1 °F 50.0 °F 51% 30.32 in 10.0 mi NNE 8.1 mph - N/A   Overcast
12:54 PM 69.1 °F 50.0 °F 51% 30.32 in 10.0 mi Variable 6.9 mph - N/A   Overcast
1:54 PM 71.1 °F 50.0 °F 47% 30.31 in 10.0 mi Calm Calm - N/A   Mostly Cloudy
2:54 PM 71.1 °F 50.0 °F 47% 30.30 in 10.0 mi NE 5.8 mph - N/A   Mostly Cloudy
3:54 PM 71.1 °F 51.1 °F 49% 30.28 in 10.0 mi Variable 4.6 mph - N/A   Scattered Clouds
4:54 PM 72.0 °F 51.1 °F 48% 30.28 in 10.0 mi Variable 3.5 mph - N/A   Partly Cloudy
5:54 PM 70.0 °F 50.0 °F 49% 30.28 in 10.0 mi ENE 4.6 mph - N/A   Scattered Clouds
6:54 PM 64.9 °F 54.0 °F 68% 30.28 in 10.0 mi Calm Calm - N/A   Scattered Clouds
7:54 PM 57.9 °F 53.1 °F 84% 30.29 in 10.0 mi Calm Calm - N/A   Clear
8:54 PM 55.0 °F 51.1 °F 86% 30.31 in 10.0 mi Calm Calm - N/A   Clear
9:54 PM 54.0 °F 51.1 °F 90% 30.30 in 10.0 mi Calm Calm - N/A   Clear
10:54 PM 53.1 °F 50.0 °F 89% 30.30 in 10.0 mi Calm Calm - N/A   Clear
11:54 PM 52.0 °F 48.9 °F 89% 30.29 in 10.0 mi Calm Calm - N/A   Clear